Regional Weather Roundup
Issued by NWS Wakefield, VA

Home | Current Version | Previous Version | Text Only | Print | Product List | Glossary Off
Versions: 1 2 3 4 5 6 7 8 9 10 11 12 13 14 15 16 17 18 19 20 21 22 23 24 25 26 27

000
ASUS41 KAKQ 230615
RWRAKQ

REGIONAL WEATHER ROUNDUP
NATIONAL WEATHER SERVICE WAKEFIELD VA
200 AM EDT SAT SEP 23 2017

Note: "fair" indicates few or no clouds below 12,000 feet with no
significant weather and/or obstructions to visibility. * = Denotes
station may not report precipitation (e.g., rain,snow,etc.),
thunder or fog.

VAZ042-051-052>054-056-230700-
NORTHERN VIRGINIA

CITY           SKY/WX    TMP DP  RH WIND       PRES   REMARKS
WASH NATIONAL  MOCLDY    69  62  78 N7        30.03R
DULLES         MOCLDY    61  61 100 CALM      30.04S
FORT BELVOIR   CLEAR     63  62  96 CALM      30.03R
QUANTICO       PTCLDY    67  66  97 NW9       30.04R
FREDERICKSBRG* PTCLDY    65  65 100 CALM      30.03R
STAFFORD*      PTCLDY    63  63 100 NW5       30.08R
WARRENTON      FOG       58  55  90 CALM      30.04S VSB 1/4
CULPEPER*      PTCLDY    64  64 100 CALM      30.06S
MANASSAS*      FOG       58  58 100 CALM      30.05R VSB 1/4
LEESBURG*      PTCLDY    63  63 100 CALM      30.06S
WINCHESTER     MOCLDY    59  59 100 NW5       30.07S
FRONT ROYAL*   MOCLDY    61  61 100 CALM      30.07R
LURAY*         PTCLDY    59  59 100 CALM      30.08S
$$

VAZ048-049-060>072-079>083-230700-
CENTRAL AND SOUTH CENTRAL VIRGINIA

CITY           SKY/WX    TMP DP  RH WIND       PRES   REMARKS
RICHMOND       CLEAR     63  62  97 CALM      30.03S
CHESTERFIELD*  NOT AVBL
PETERSBURG*    CLOUDY    58  58 100 CALM      30.04R FOG
HANOVER        FOG       62  62 100 CALM      30.04S VSB 1/4
TAPPAHANNOCK*  CLEAR    N/A N/A N/A W3        30.02S
QUINTON*       FAIR      62  62 100 MISG      30.02S
CHARLOTTSVILLE CLOUDY    68  66  93 CALM      30.06S
GORDONSVILLE*  PTCLDY    63  63 100 CALM      30.05S FOG
ORANGE*        PTCLDY    63  61  94 CALM      30.05S FOG
LOUISA*        FOG       63  61  94 CALM      30.04F VSB 1/2
BUMPASS*       FAIR      64  64 100 W8        30.04S
FARMVILLE*     FOG       65  65 100 CALM      30.04S VSB 3/4
CREWE*         FAIR      62  62 100 CALM      30.04S
FORT PICKETT*  FAIR      64  64 100 W6        30.04S
CHASE CITY*    FAIR      64  64 100 CALM      30.04S
CLARKSVILLE*   FAIR      64  64 100 CALM      30.03S
SOUTH HILL*    CLEAR     64  64 100 CALM      30.09S
LAWRENCEVILLE* FAIR      64  63  97 CALM      30.03S
EMPORIA*       CLEAR     61  61 100 CALM      30.04S
$$

VAZ088>098-230700-
SOUTHEAST VIRGINIA

CITY           SKY/WX    TMP DP  RH WIND       PRES   REMARKS
NORFOLK        CLEAR     67  65  93 SW5       30.00S
VIRGINIA BEACH CLEAR     64  61  90 SW6       30.00R
NORFOLK NAVAL  CLEAR     68  65  90 CALM      30.02S
WEST POINT*    CLEAR     57  57 100 CALM      30.03S
SALUDA*        FAIR      63  63 100 CALM      30.00S
NEWPORT NEWS   CLEAR     62  62 100 CALM      30.01S FOG
LANGLEY AFB    CLEAR     66  66  99 CALM      30.00S
FORT EUSTIS    CLEAR     65  62  89 CALM      29.99R
WILLIAMSBURG*  CLEAR     66  64  94 CALM      30.03R
HR EXEC AP*    FAIR      58  58 100 CALM      30.02S FOG
FRANKLIN*      CLEAR     60  59  97 CALM      30.03S
US460-WAKEFLD  CLEAR     62  61  96 CALM      30.02S FOG
$$

VAZ020-022-025-037-045-230700-
WEST CENTRAL AND SOUTHWEST VIRGINIA

CITY           SKY/WX    TMP DP  RH WIND       PRES   REMARKS
STAUNTON*      PTCLDY    61  59  95 CALM      30.11S
WAYNESBORO*    PTCLDY    62  62 100 CALM      30.11S
HOT SPRINGS VA PTCLDY    67  54  63 CALM      30.22S
LYNCHBURG      PTCLDY    65  64  97 CALM      30.07S
DANVILLE       PTCLDY    62  62 100 CALM      30.05S
SOUTH BOSTON*  FAIR      62  60  95 CALM      30.05R
MARTINSVILLE   PTCLDY    65  64  97 CALM      30.09R FOG
ROANOKE        MOCLDY    66  63  90 CALM      30.10R
BLACKSBURG     MOCLDY    64  64  98 CALM      30.15S
DUBLIN*        CLOUDY    66  64  94 CALM      30.14R FOG
MARION*        CLOUDY    62  59  90 CALM      30.17F
HILLSVILLE*    PTCLDY    64  60  87 CALM      30.15R
RICHLANDS*     FAIR      67  62  83 CALM      30.16S
WISE*          MOCLDY    68  66  94 NE3       30.17S
ABINGDON*      CLOUDY    68  64  87 E5        30.12S
$$

MDZ021>025-VAZ099-100-230700-
SOUTHERN MARYLAND AND THE DELMARVA PENINSULA

CITY           SKY/WX    TMP DP  RH WIND       PRES   REMARKS
PATUXENT RIVER CLEAR     68  65  90 W3        30.00S
BAY BRIDGE APT CLEAR     72  59  64 N6        30.01R
LEONARDTOWN    CLEAR     64  63  94 NW3       30.03S
DOVER          CLEAR     64  57  77 N7        29.99R
GEORGETOWN     CLEAR     70  60  70 N5        29.99S
EASTON         CLEAR     67  63  84 CALM      30.04S
CAMBRIDGE      CLEAR     72  64  78 NW6       30.00R
SALISBURY      CLEAR     66  63  90 NW5       29.98S
OCEAN CITY     CLEAR     67  63  87 NW6       29.98S
WALLOPS ISLAND CLEAR     70  66  87 NW7       29.99S
ACCOMACK*      FOG       65  65  99 NW3       29.99S VSB 1/4
$$

NCZ012>017-030>032-230700-
NORTH CENTRAL AND EASTERN NORTH CAROLINA

CITY           SKY/WX    TMP DP  RH WIND       PRES   REMARKS
ROANOKE RAPIDS FAIR      63  63 100 CALM      30.03S
RALEIGH        MOCLDY    69  65  86 E5        30.04R
ELIZABETH CITY CLEAR     66  66 100 CALM      30.02R
AHOSKIE*       CLEAR     62  62 100 CALM      30.03S
EDENTON*       CLEAR     67  66  94 CALM      30.02S
CURRITUCK*     PTCLDY    65  64  97 CALM      30.02S FOG
KILL DEVIL HLS CLEAR     70  63  78 CALM      30.00S
MANTEO         CLEAR     65  65  98 CALM      30.02R FOG
CAPE HATTERAS  MOCLDY    72  71  97 CALM      30.01S FOG
TARBORO*       NOT AVBL
GOLDSBORO      CLEAR     69  69 100 CALM      30.01R
WASHINGTON     PTCLDY    67  66  96 CALM      30.02S
GREENVILLE     FOG       68  66  94 CALM      30.03S VSB 1
NEW BERN       CLEAR     70  69  97 S3        30.02S
WILMINGTON     CLEAR     69  68  96 CALM      30.01S
$$

VAZ048-230700-
ELSEWHERE

CITY           SKY/WX    TMP DP  RH WIND       PRES   REMARKS
HARRISBURG PA  MOCLDY    65  61  87 NW10      30.04S
BALTIMORE      MOCLDY    64  59  83 W3        30.01S
ANNAPOLIS      PTCLDY    73  68  84 NW3       30.01R
ANDREWS AFB    PTCLDY    64  57  78 N7        30.02R
PHILADELPHIA   PTCLDY    71  53  52 N5        30.01S
HENDERSON NC   CLEAR     61  60  96 CALM      30.05R
GREENSBORO     CLOUDY    69  66  90 CALM      30.05S
ROCKY MOUNT    CLEAR     66  66 100 CALM      30.03S FOG
$$

VAZ100-230700-
MARINE

STATION/POSITION TIME  TEMP    WIND        PRES    WAVE   SWELL
                       AIR SEA DIR/SP/G            HT/PER HT/PER
                 (UTC) (F)     (DEG/KT/KT) (MB)    (FT/S) (FT/S)
BRANDYWINE LGT   0536   75      10/ 12/ 15 1015.7R
CAPE MAY NJ      0536   73 74   20/  2/  5 1014.8S
LEWES DE         0536   75 74   10/  9/ 11 1015.1R
15NM E FENWICK I 0550   73 71  340/ 10/ 12 1014.9F   6/10   7/10
OCEAN-CITY-INLET 0536   72 73   10/  9/ 10 1015.3S
WACHAPREAGUE VA  0536   70 75   CALM  /  3 1015.5S
THOMAS POINT MD  0600   73 76  350/  7/  8   N/A
GOOSES REEF MD   0600   75 75  360/ 10/ 12 1016.6
COVE POINT MD    0536   74     330/  5/  8 1016.6R
SOLOMONS ISLAND  0536   71 76  290/  3/  4 1015.7R
BISHOPS HEAD MD  0536   73 77  310/  4/  5 1015.9R
PINEY POINT MD   0548          340/  9/  9   N/A
POTOMAC MD       0600   74 76  340/  8/ 10 1015.1
CAMBRIDGE MD     0536   72 76              1016.5R
LEWISETTA VA     0536   69 77  290/  3/  4 1015.8F
RAPPAHANNOCK LGT 0548          280/  6/  7 1016.2F
STINGRAY PT      0600   73 76  310/  8/ 10 1016.1    0
YORK RVR RNG VA  0536   73     310/  6/  6 1016.4F
YORKTOWN VA      0536   71 77  250/  3/  3 1015.7S
JAMESTOWN VA     0600      78  360/  4/  4   N/A     0
DOMINION TERM VA 0536   74     310/  5/  5 1016.2S
KIPTOPEKE VA     0548      76  300/  6/  7   N/A
CHES BAY BRIDGE  0536   74 75  280/  5/  7 1015.7S
CAPE HENRY VA    0536   70     230/  5/  6   N/A
WILLOUBY STN VA  0536   73     300/  5/  5 1015.9S
S CRANEY ISL VA  0536   71     230/  3/  3 1015.9R
CAPE HENRY BUOY  0530      74                N/A     4/12   2/12
1ST LANDING BUOY 0600   75 75              1015.8    2/ 6
64NM E OF VA BCH 0550   70 69  250/  6/  8 1016.1R   9/11  10/11
DUCK PIER NC     0536   74 76  200/  5/  6 1015.8R
44100 DUCK FRF   0535      74                N/A     6/11   5/11
44056 DUCK FRF   0530      76                N/A     5/12   3/12
OREGON INLET NC  0536   73 79   90/  1/  2 1016.0S
HATTERAS NC      0536   76 79  220/  2/  2 1016.3R
DIAMOND SHLS NC  0550   77 77  320/  2/  4 1016.2R   6/12   7/12
CAPE LOOKOUT NC  0600   77     230/  4/  4 1015.9R
$$




USA.gov is the U.S. government's official web portal to all federal, state and local government web resources and services.